[[{"header":{"parameterUnit":"m.s-1","parameterCategory":1,"la1":30.2991,"la2":30.254,"lo1":-89.0895,"lo2":-89.0444,"dx":0.0017,"dy":0.0017,"nx":28,"ny":28,"refTime":"2022-11-28T15:00:00:Z","depth":0,"parameterNumber":2,"parameterNumberName":"U-component_of_WINDS"},"data":[0,0,0,0,0,0,0,0,0,0,0,0,0,0,0,0,0,0,0,0,0,0,0,0,0,0,0,0,0,0,0,0,0,0,0,0,0,0,0,0,0,0,0,0,0,0,0,0,0,0,0,0,0,0,0,0,0,0,-0.0292,-0.0292,0,-0.0251,-0.0251,-0.025,-0.0243,-0.0244,-0.0244,-0.0245,-0.02,-0.0199,-0.0197,0,0,0,0,0,0,0,0,0,0,0,0,0,-0.0362,-0.036,-0.0292,-0.0292,-0.0291,-0.0251,-0.025,-0.025,-0.0243,-0.0244,-0.0244,-0.0245,-0.0201,-0.0199,-0.0197,0,0,0,0,0,0,0,0,0,0,0,0,0,-0.0327,-0.036,-0.0292,-0.0283,-0.0282,-0.0251,-0.025,-0.025,-0.0243,-0.0244,-0.0244,-0.0245,-0.0201,-0.0199,-0.0197,-0.0172,0,0,-0.019,-0.0189,0,0,0,0,0,0,0,0,-0.0329,-0.0324,-0.0285,-0.0284,-0.0282,-0.0253,-0.0259,-0.0223,-0.0243,-0.0258,-0.0245,-0.0245,-0.0217,-0.0214,-0.0205,-0.017,-0.0168,-0.019,-0.0188,-0.0187,-0.0187,0,0,0,0,0,0,0,-0.0331,-0.0326,-0.0276,-0.0284,-0.0283,-0.028,-0.0276,-0.0252,-0.0235,-0.0257,-0.0256,-0.0251,-0.0216,-0.0207,-0.0203,-0.0167,-0.019,-0.0188,-0.0186,-0.0185,-0.0106,-0.0105,0,0,0,0,0,0,-0.0336,-0.0328,-0.0277,-0.0275,-0.0308,-0.0278,-0.0273,-0.0262,-0.0235,-0.0232,-0.0251,-0.0251,-0.021,-0.0206,-0.0202,-0.0169,-0.0187,-0.0185,-0.0184,-0.0107,-0.0106,-0.0105,0,0,0,0,0,0,-0.0337,-0.0331,-0.0279,-0.0301,-0.0294,-0.0276,-0.0263,-0.0261,-0.0251,-0.0231,-0.0227,-0.0245,-0.0211,-0.0205,-0.0179,-0.0167,-0.0184,-0.0182,-0.0108,-0.0106,-0.0105,-0.0104,0,0,0,0,0,0,-0.0339,-0.0332,-0.0323,-0.0301,-0.0293,-0.0258,-0.0263,-0.026,-0.0247,-0.0247,-0.0224,-0.022,-0.0211,-0.0182,-0.0176,-0.0165,-0.018,-0.0108,-0.0107,-0.0106,-0.0105,-0.0103,-0.0101,0,0,0,0,0,-0.0342,-0.0325,-0.0323,-0.0317,-0.0282,-0.0257,-0.0252,-0.0242,-0.0247,-0.0237,-0.0223,-0.0221,-0.0169,-0.0179,-0.0173,-0.016,-0.0109,-0.0107,-0.0106,-0.0106,-0.0103,-0.0101,0,0,0,0,0,0,-0.0346,-0.0322,-0.032,-0.0295,-0.0278,-0.0256,-0.0244,-0.024,-0.0221,-0.0222,-0.0209,-0.0204,-0.0178,-0.0166,-0.0178,-0.0133,-0.0139,-0.0136,-0.0142,-0.0139,-0.0137,-0.0141,-0.0178,0,0,0,0,0,-0.0344,-0.0327,-0.0306,-0.0286,-0.0278,-0.0262,-0.0251,-0.0244,-0.0226,-0.0219,-0.0203,-0.0185,-0.0164,-0.0151,-0.0131,-0.0103,-0.0096,-0.0091,-0.0089,-0.0087,-0.0085,-0.0067,-0.0063,-0.01,-0.01,-0.01,0,0,-0.034,-0.0325,-0.0315,-0.0287,-0.0273,-0.0254,-0.0256,-0.0237,-0.0222,-0.0216,-0.019,-0.0177,-0.0155,-0.0128,-0.0114,-0.0117,-0.0073,-0.0085,-0.0084,-0.0082,-0.0065,-0.0061,-0.0058,-0.0098,-0.0099,-0.0099,0,0,-0.0323,-0.031,-0.0291,-0.0277,-0.0256,-0.0245,-0.024,-0.0218,-0.021,-0.0183,-0.0178,-0.0159,-0.0124,-0.0108,-0.0096,-0.0069,-0.0065,-0.0063,-0.0053,-0.0036,-0.0033,-0.003,-0.0019,-0.0015,-0.006,-0.006,-0.006,0,-0.0321,-0.0293,-0.0282,-0.0262,-0.0249,-0.0242,-0.0221,-0.0208,-0.0181,-0.0171,-0.0175,-0.0129,-0.0114,-0.0081,-0.0075,-0.0065,-0.0058,-0.0066,-0.0034,-0.0031,-0.0029,-0.0018,-0.0014,-0.006,-0.006,-0.006,-0.006,0,-0.029,-0.027,-0.0257,-0.0231,-0.0216,-0.0196,-0.0181,-0.0167,-0.0161,-0.0149,-0.0121,-0.0102,-0.0077,-0.0069,-0.0063,-0.0034,-0.0036,-0.0037,-0.0043,-0.0025,-0.0015,-0.0011,-0.006,-0.006,-0.006,-0.006,0,0,-0.0276,-0.0243,-0.0238,-0.0225,-0.02,-0.0184,-0.0162,-0.0138,-0.0125,-0.0106,-0.0086,-0.0056,-0.0055,-0.0041,-0.0033,-0.0017,0.0005,-0.002,-0.0019,-0.0015,0.004,0.0041,0.0046,0.0008,0.0009,0.0009,0.0039,0,-0.0255,-0.0217,-0.0206,-0.0173,-0.0154,-0.0145,-0.0126,-0.0107,-0.0095,-0.0075,-0.0061,-0.0039,-0.0042,-0.0032,-0.0017,-0.0001,0.0016,-0.0003,0.0028,0.0029,0.0022,0.0051,0.0051,0.0078,0.0043,0.0044,0.0044,0,-0.0226,-0.0206,-0.0172,-0.0147,-0.0138,-0.0121,-0.0097,-0.0079,-0.0056,-0.0048,-0.003,-0.0023,0.0002,-0.0005,0.0031,0.0018,0.0032,0.0042,0.0043,0.0046,0.0038,0.0056,0.0087,0.0091,0.005,0.005,0.0049,0,-0.0218,-0.0182,-0.0157,-0.0146,-0.0117,-0.0104,-0.0091,-0.007,-0.0055,-0.0033,-0.0023,0.0002,0.0016,0.0036,0.0051,0.0044,0.0087,0.008,0.0096,0.0096,0.0104,0.0103,0.0138,0.0112,0.0112,0.0112,0.0112,0,-0.0196,-0.0175,-0.0152,-0.0137,-0.0112,-0.0098,-0.0073,-0.0059,-0.0039,-0.0019,-0.001,0.0009,0.0027,0.0049,0.0061,0.0091,0.0097,0.0105,0.0108,0.0105,0.0104,0.0114,0.0113,0.0113,0.0113,0.0112,0.0112,0,-0.0183,-0.0167,-0.0138,-0.0112,-0.0105,-0.0088,-0.0064,-0.0048,-0.0034,-0.0008,-0.0002,0.002,0.0047,0.0064,0.0098,0.0107,0.0139,0.0141,0.0131,0.0133,0.0148,0.0147,0.0191,0.0199,0.0166,0.0167,0.0167,0,-0.017,-0.0153,-0.0125,-0.0111,-0.0097,-0.0075,-0.006,-0.0044,-0.0028,0.0,0.0014,0.0042,0.0064,0.0107,0.0127,0.0154,0.0157,0.0171,0.0161,0.0158,0.0159,0.0158,0.0161,0.0172,0.0173,0.0173,0.0173,0,-0.0147,-0.0139,-0.0118,-0.0093,-0.0075,-0.0054,-0.0034,-0.0023,-0.0003,0.0015,0.0043,0.006,0.0096,0.0124,0.0153,0.0168,0.0175,0.0176,0.0182,0.0178,0.0172,0.0177,0.0136,0.0175,0.0175,0.0175,0.0175,0.0174,-0.0133,-0.0117,-0.0094,-0.0069,-0.0052,-0.0032,-0.0015,0.0002,0.0025,0.0054,0.0063,0.0092,0.0117,0.0157,0.0173,0.0198,0.0196,0.0203,0.0205,0.0207,0.0208,0.0168,0.0203,0.0203,0.0203,0.0203,0.0203,0,-0.0109,-0.0093,-0.0071,-0.0042,-0.0022,-0.0018,0.0006,0.0023,0.0048,0.0071,0.0093,0.0126,0.0154,0.0177,0.0206,0.0222,0.0226,0.0229,0.0228,0.0232,0.0207,0.02,0.0225,0.0225,0.0225,0.0225,0.0225,0.0225,-0.0094,-0.0066,-0.0056,-0.0018,-0.0002,0.0026,0.004,0.0059,0.0077,0.0114,0.0137,0.0151,0.0175,0.0206,0.0233,0.0239,0.025,0.0253,0.026,0.0236,0.0234,0.0231,0.0225,0.0255,0.0255,0.0284,0.0284,0.0284]},{"header":{"parameterUnit":"m.s-1","parameterCategory":1,"la1":30.2991,"la2":30.254,"lo1":-89.0895,"lo2":-89.0444,"dx":0.0017,"dy":0.0017,"nx":28,"ny":28,"refTime":"2022-11-28T15:00:00:Z","depth":0,"parameterNumber":3,"parameterNumberName":"V-component_of_WINDS"},"data":[0,0,0,0,0,0,0,0,0,0,0,0,0,0,0,0,0,0,0,0,0,0,0,0,0,0,0,0,0,0,0,0,0,0,0,0,0,0,0,0,0,0,0,0,0,0,0,0,0,0,0,0,0,0,0,0,0,0,-1.1942,-1.1943,0,-1.2035,-1.2036,-1.2037,-1.2082,-1.2082,-1.2082,-1.2082,-1.2175,-1.2177,-1.2179,0,0,0,0,0,0,0,0,0,0,0,0,0,-1.1803,-1.1805,-1.1942,-1.1943,-1.1944,-1.2035,-1.2036,-1.2037,-1.2082,-1.2082,-1.2082,-1.2082,-1.2174,-1.2177,-1.218,0,0,0,0,0,0,0,0,0,0,0,0,0,-1.1876,-1.1806,-1.1942,-1.1978,-1.1982,-1.2034,-1.2036,-1.2037,-1.2082,-1.2082,-1.2082,-1.2082,-1.2173,-1.2176,-1.218,-1.2203,0,0,-1.2191,-1.2193,0,0,0,0,0,0,0,0,-1.1872,-1.1881,-1.1971,-1.1975,-1.198,-1.2047,-1.2021,-1.2093,-1.2082,-1.2044,-1.2082,-1.2082,-1.2132,-1.2139,-1.2156,-1.2208,-1.2212,-1.2192,-1.2194,-1.2196,-1.2197,0,0,0,0,0,0,0,-1.1867,-1.1877,-1.1979,-1.1972,-1.1978,-1.1989,-1.1999,-1.2035,-1.2087,-1.2047,-1.2051,-1.2061,-1.2134,-1.2153,-1.2159,-1.2213,-1.2192,-1.2195,-1.2197,-1.2199,-1.229,-1.229,0,0,0,0,0,0,-1.1856,-1.1873,-1.1976,-1.1981,-1.1925,-1.1991,-1.2003,-1.2025,-1.2086,-1.2096,-1.2061,-1.2063,-1.2146,-1.2154,-1.2162,-1.2194,-1.2196,-1.2199,-1.2201,-1.2289,-1.229,-1.229,0,0,0,0,0,0,-1.1853,-1.1865,-1.1972,-1.1928,-1.1943,-1.1994,-1.2018,-1.2027,-1.2046,-1.2097,-1.2106,-1.207,-1.2147,-1.2157,-1.2193,-1.2198,-1.2201,-1.2204,-1.2289,-1.2289,-1.229,-1.2258,0,0,0,0,0,0,-1.1849,-1.1863,-1.1873,-1.1928,-1.1945,-1.2002,-1.2019,-1.2029,-1.2052,-1.2055,-1.2108,-1.2117,-1.2147,-1.2187,-1.2197,-1.2203,-1.2207,-1.2289,-1.2289,-1.229,-1.2259,-1.2257,-1.2256,0,0,0,0,0,-1.1844,-1.186,-1.1873,-1.1885,-1.1958,-1.2002,-1.2011,-1.2047,-1.2052,-1.2062,-1.2096,-1.2115,-1.2196,-1.2191,-1.2202,-1.2209,-1.2289,-1.2289,-1.229,-1.226,-1.2258,-1.2256,0,0,0,0,0,0,-1.1803,-1.1867,-1.1883,-1.1918,-1.1954,-1.2009,-1.2023,-1.2043,-1.2078,-1.208,-1.2121,-1.2133,-1.2166,-1.2191,-1.2184,-1.2236,-1.2244,-1.2247,-1.2218,-1.2216,-1.2215,-1.2208,-1.221,0,0,0,0,0,-1.1798,-1.1829,-1.1883,-1.1908,-1.1926,-1.1971,-1.1992,-1.2016,-1.2055,-1.207,-1.2106,-1.2143,-1.2177,-1.2198,-1.2232,-1.2263,-1.2276,-1.2274,-1.2272,-1.2271,-1.2273,-1.2292,-1.2292,-1.2291,-1.2291,-1.2291,0,0,-1.1788,-1.1827,-1.1844,-1.1901,-1.1932,-1.1963,-1.1984,-1.2015,-1.2038,-1.2075,-1.2112,-1.2139,-1.2183,-1.2217,-1.2234,-1.2239,-1.2276,-1.2271,-1.227,-1.2272,-1.2292,-1.2292,-1.2292,-1.2291,-1.2291,-1.2291,0,0,-1.1785,-1.1818,-1.1843,-1.1874,-1.1921,-1.1951,-1.1957,-1.201,-1.203,-1.2068,-1.2096,-1.2124,-1.2182,-1.2212,-1.2235,-1.2245,-1.2265,-1.2255,-1.2247,-1.2265,-1.2265,-1.2265,-1.227,-1.227,-1.2257,-1.2257,-1.2256,0,-1.1766,-1.1814,-1.1853,-1.1883,-1.1908,-1.1944,-1.1969,-1.1997,-1.2053,-1.2069,-1.2075,-1.2148,-1.218,-1.2222,-1.2225,-1.2242,-1.225,-1.2249,-1.2262,-1.2263,-1.2264,-1.2268,-1.2269,-1.2255,-1.2255,-1.2255,-1.2256,0,-1.1789,-1.1822,-1.1837,-1.189,-1.1917,-1.1944,-1.1987,-1.2009,-1.2031,-1.2061,-1.2099,-1.2139,-1.2182,-1.2194,-1.2216,-1.224,-1.2242,-1.2254,-1.2264,-1.2262,-1.2266,-1.2268,-1.2253,-1.2253,-1.2254,-1.2254,0,0,-1.1762,-1.1839,-1.1843,-1.1869,-1.1924,-1.195,-1.1979,-1.2022,-1.2041,-1.2078,-1.2104,-1.2152,-1.2165,-1.2191,-1.2216,-1.2232,-1.2239,-1.2243,-1.2245,-1.2241,-1.2268,-1.2258,-1.2259,-1.2252,-1.2253,-1.2253,-1.2264,0,-1.1768,-1.1823,-1.1859,-1.19,-1.1931,-1.1966,-1.1992,-1.2029,-1.2057,-1.2088,-1.2119,-1.2153,-1.2167,-1.2183,-1.22,-1.2234,-1.2244,-1.2234,-1.2276,-1.2277,-1.2264,-1.2262,-1.2252,-1.226,-1.2267,-1.2267,-1.2267,0,-1.1781,-1.1818,-1.1863,-1.1916,-1.193,-1.1953,-1.1996,-1.2024,-1.2067,-1.2087,-1.2116,-1.2143,-1.2175,-1.2182,-1.2228,-1.222,-1.224,-1.2259,-1.226,-1.2265,-1.2272,-1.2267,-1.2264,-1.2265,-1.227,-1.227,-1.227,0,-1.1757,-1.1819,-1.1854,-1.1874,-1.1937,-1.1952,-1.1979,-1.2021,-1.2045,-1.2083,-1.2099,-1.2139,-1.2161,-1.2192,-1.2228,-1.223,-1.2271,-1.228,-1.2288,-1.2287,-1.2295,-1.2294,-1.2295,-1.2307,-1.2307,-1.2307,-1.2307,0,-1.1759,-1.1785,-1.1844,-1.1865,-1.1895,-1.1937,-1.1965,-1.1995,-1.2033,-1.206,-1.2093,-1.2118,-1.2165,-1.2196,-1.2224,-1.2258,-1.2268,-1.2285,-1.2292,-1.2282,-1.228,-1.2295,-1.2295,-1.2307,-1.2307,-1.2307,-1.2307,0,-1.1737,-1.1778,-1.1818,-1.1875,-1.189,-1.1909,-1.1958,-1.198,-1.2011,-1.2046,-1.2056,-1.2105,-1.2143,-1.2183,-1.2234,-1.2253,-1.2286,-1.2296,-1.2272,-1.2276,-1.2281,-1.228,-1.2292,-1.2296,-1.2306,-1.2306,-1.2305,0,-1.1735,-1.1756,-1.1816,-1.1837,-1.1864,-1.1897,-1.1922,-1.1964,-1.1989,-1.204,-1.2056,-1.2097,-1.2132,-1.2191,-1.2231,-1.227,-1.2282,-1.2283,-1.2288,-1.2277,-1.2282,-1.228,-1.2283,-1.2281,-1.2281,-1.2281,-1.2281,0,-1.1728,-1.1748,-1.1783,-1.1826,-1.1856,-1.1891,-1.1928,-1.1943,-1.1992,-1.2018,-1.2059,-1.2086,-1.2139,-1.2179,-1.2224,-1.2251,-1.2274,-1.2279,-1.2283,-1.2273,-1.2258,-1.2266,-1.2268,-1.2278,-1.2279,-1.2279,-1.2279,-1.2279,-1.1717,-1.1738,-1.1783,-1.1822,-1.1854,-1.1888,-1.1912,-1.1947,-1.1981,-1.2028,-1.2051,-1.2091,-1.2134,-1.2197,-1.2224,-1.2256,-1.2262,-1.2268,-1.2269,-1.227,-1.2267,-1.2253,-1.2264,-1.2264,-1.2264,-1.2264,-1.2264,0,-1.1712,-1.1743,-1.1778,-1.1829,-1.186,-1.188,-1.1922,-1.1946,-1.1981,-1.202,-1.2054,-1.2101,-1.214,-1.2183,-1.2226,-1.2243,-1.2254,-1.2253,-1.2252,-1.2258,-1.2259,-1.2252,-1.2243,-1.2243,-1.2243,-1.2243,-1.2243,-1.2243,-1.1713,-1.1749,-1.1774,-1.1827,-1.1858,-1.1899,-1.1921,-1.1952,-1.1984,-1.2034,-1.2068,-1.2096,-1.2137,-1.2183,-1.222,-1.2232,-1.2246,-1.2241,-1.2255,-1.2256,-1.2257,-1.2259,-1.2252,-1.2243,-1.2243,-1.2251,-1.2252,-1.2252]}]]